TimeEDT,TemperatureF,Dew PointF,Humidity,Sea Level PressureIn,VisibilityMPH,Wind Direction,Wind SpeedMPH,Gust SpeedMPH,PrecipitationIn,Events,Conditions,WindDirDegrees,DateUTC
12:14 AM,42.8,42.8,100,30.14,10.0,SE,3.5,-,N/A,,Clear,140,2013-10-11 04:14:00
12:34 AM,42.8,41.0,93,30.14,10.0,Calm,Calm,-,N/A,,Clear,0,2013-10-11 04:34:00
12:54 AM,44.6,42.8,93,30.13,10.0,Calm,Calm,-,N/A,,Clear,0,2013-10-11 04:54:00
1:14 AM,42.8,41.0,93,30.14,10.0,Calm,Calm,-,N/A,,Clear,0,2013-10-11 05:14:00
1:35 AM,44.6,42.8,93,30.14,10.0,Calm,Calm,-,N/A,,Clear,0,2013-10-11 05:35:00
1:54 AM,42.8,41.0,93,30.13,10.0,Calm,Calm,-,N/A,,Clear,0,2013-10-11 05:54:00
2:14 AM,41.0,37.4,87,30.13,10.0,SE,4.6,-,N/A,,Clear,130,2013-10-11 06:14:00
2:35 AM,41.0,39.2,93,30.13,10.0,SE,3.5,-,N/A,,Clear,130,2013-10-11 06:35:00
2:54 AM,41.0,39.2,93,30.14,10.0,Calm,Calm,-,N/A,,Clear,0,2013-10-11 06:54:00
3:14 AM,41.0,37.4,87,30.14,10.0,Calm,Calm,-,N/A,,Clear,0,2013-10-11 07:14:00
3:34 AM,42.8,39.2,87,30.13,10.0,Calm,Calm,-,N/A,,Clear,0,2013-10-11 07:34:00
3:54 AM,41.0,37.4,87,30.13,10.0,Calm,Calm,-,N/A,,Clear,0,2013-10-11 07:54:00
4:14 AM,42.8,39.2,87,30.13,10.0,Calm,Calm,-,N/A,,Clear,0,2013-10-11 08:14:00
4:34 AM,41.0,37.4,87,30.13,10.0,Calm,Calm,-,N/A,,Clear,0,2013-10-11 08:34:00
4:54 AM,41.0,39.2,93,30.13,10.0,Calm,Calm,-,N/A,,Clear,0,2013-10-11 08:54:00
5:14 AM,41.0,37.4,87,30.13,10.0,Calm,Calm,-,N/A,,Clear,0,2013-10-11 09:14:00
5:34 AM,39.2,37.4,93,30.14,10.0,Calm,Calm,-,N/A,,Clear,0,2013-10-11 09:34:00
5:54 AM,39.2,37.4,93,30.14,10.0,Calm,Calm,-,N/A,,Clear,0,2013-10-11 09:54:00
6:14 AM,39.2,37.4,93,30.14,10.0,Calm,Calm,-,N/A,,Clear,0,2013-10-11 10:14:00
6:34 AM,39.2,37.4,93,30.15,10.0,Calm,Calm,-,N/A,,Clear,0,2013-10-11 10:34:00
6:54 AM,39.2,37.4,93,30.16,10.0,Calm,Calm,-,N/A,,Clear,0,2013-10-11 10:54:00
7:14 AM,39.2,39.2,100,30.16,7.0,Calm,Calm,-,N/A,,Clear,0,2013-10-11 11:14:00
7:34 AM,39.2,39.2,100,30.16,10.0,Calm,Calm,-,N/A,,Clear,0,2013-10-11 11:34:00
7:54 AM,37.4,37.4,100,30.17,10.0,Calm,Calm,-,N/A,,Clear,0,2013-10-11 11:54:00
8:14 AM,37.4,37.4,100,30.17,10.0,Calm,Calm,-,N/A,,Clear,0,2013-10-11 12:14:00
8:34 AM,41.0,39.2,93,30.17,10.0,Calm,Calm,-,N/A,,Clear,0,2013-10-11 12:34:00
8:54 AM,42.8,42.8,100,30.16,10.0,Calm,Calm,-,N/A,,Clear,0,2013-10-11 12:54:00
9:14 AM,46.4,44.6,93,30.16,10.0,Calm,Calm,-,N/A,,Clear,0,2013-10-11 13:14:00
9:34 AM,48.2,46.4,93,30.16,10.0,Calm,Calm,-,N/A,,Clear,0,2013-10-11 13:34:00
9:54 AM,51.8,46.4,82,30.16,10.0,Calm,Calm,-,N/A,,Clear,0,2013-10-11 13:54:00
10:14 AM,53.6,48.2,82,30.16,10.0,Calm,Calm,-,N/A,,Clear,0,2013-10-11 14:14:00
10:34 AM,55.4,50.0,82,30.16,10.0,Calm,Calm,-,N/A,,Clear,0,2013-10-11 14:34:00
10:54 AM,59.0,51.8,77,30.16,10.0,Calm,Calm,-,N/A,,Clear,0,2013-10-11 14:54:00
11:14 AM,60.8,51.8,72,30.16,10.0,East,4.6,-,N/A,,Clear,80,2013-10-11 15:14:00
11:35 AM,60.8,50.0,68,30.15,10.0,East,3.5,-,N/A,,Clear,90,2013-10-11 15:35:00
11:54 AM,62.6,50.0,63,30.15,10.0,East,3.5,-,N/A,,Clear,90,2013-10-11 15:54:00
12:14 PM,64.4,50.0,59,30.14,10.0,East,6.9,-,N/A,,Clear,80,2013-10-11 16:14:00
12:34 PM,64.4,50.0,59,30.14,10.0,East,3.5,-,N/A,,Clear,80,2013-10-11 16:34:00
12:54 PM,68.0,44.6,43,30.14,10.0,ENE,8.1,-,N/A,,Clear,70,2013-10-11 16:54:00
1:14 PM,68.0,42.8,40,30.13,10.0,ESE,4.6,-,N/A,,Clear,110,2013-10-11 17:14:00
1:34 PM,68.0,37.4,33,30.12,10.0,ESE,4.6,-,N/A,,Clear,120,2013-10-11 17:34:00
1:54 PM,68.0,37.4,33,30.12,10.0,Calm,Calm,-,N/A,,Clear,0,2013-10-11 17:54:00
2:14 PM,68.0,39.2,35,30.11,10.0,SSE,3.5,-,N/A,,Clear,160,2013-10-11 18:14:00
2:34 PM,69.8,41.0,35,30.10,10.0,Calm,Calm,-,N/A,,Clear,0,2013-10-11 18:34:00
2:54 PM,69.8,39.2,33,30.10,10.0,Calm,Calm,-,N/A,,Clear,0,2013-10-11 18:54:00
3:14 PM,69.8,37.4,31,30.09,10.0,Calm,Calm,-,N/A,,Clear,0,2013-10-11 19:14:00
3:34 PM,71.6,35.6,27,30.09,10.0,Calm,Calm,-,N/A,,Clear,0,2013-10-11 19:34:00
3:54 PM,71.6,30.2,22,30.09,10.0,East,3.5,-,N/A,,Clear,100,2013-10-11 19:54:00
4:14 PM,71.6,28.4,20,30.08,10.0,ESE,6.9,-,N/A,,Clear,120,2013-10-11 20:14:00
4:34 PM,68.0,48.2,49,30.08,10.0,NE,9.2,-,N/A,,Clear,50,2013-10-11 20:34:00
4:54 PM,68.0,50.0,52,30.08,10.0,NE,8.1,-,N/A,,Clear,40,2013-10-11 20:54:00
5:14 PM,68.0,50.0,52,30.09,10.0,NNE,6.9,-,N/A,,Clear,20,2013-10-11 21:14:00
5:34 PM,66.2,51.8,60,30.09,5.0,NNE,9.2,-,N/A,,Haze,20,2013-10-11 21:34:00
5:54 PM,64.4,50.0,59,30.09,10.0,NNE,8.1,-,N/A,,Clear,20,2013-10-11 21:54:00
6:14 PM,64.4,50.0,59,30.09,1.5,NNE,8.1,-,N/A,,Haze,20,2013-10-11 22:14:00
6:34 PM,62.6,48.2,59,30.09,10.0,North,4.6,-,N/A,,Clear,10,2013-10-11 22:34:00
6:54 PM,60.8,46.4,59,30.09,10.0,Calm,Calm,-,N/A,,Clear,0,2013-10-11 22:54:00
7:14 PM,59.0,46.4,63,30.09,10.0,Calm,Calm,-,N/A,,Clear,0,2013-10-11 23:14:00
7:34 PM,55.4,46.4,72,30.09,10.0,Calm,Calm,-,N/A,,Clear,0,2013-10-11 23:34:00
7:54 PM,55.4,46.4,72,30.08,10.0,Calm,Calm,-,N/A,,Clear,0,2013-10-11 23:54:00
8:14 PM,53.6,46.4,77,30.08,10.0,Calm,Calm,-,N/A,,Clear,0,2013-10-12 00:14:00
8:34 PM,51.8,44.6,76,30.08,10.0,Calm,Calm,-,N/A,,Clear,0,2013-10-12 00:34:00
8:54 PM,53.6,46.4,77,30.08,10.0,Calm,Calm,-,N/A,,Clear,0,2013-10-12 00:54:00
9:14 PM,53.6,48.2,82,30.08,10.0,ESE,3.5,-,N/A,,Clear,120,2013-10-12 01:14:00
9:34 PM,51.8,44.6,76,30.08,10.0,Calm,Calm,-,N/A,,Clear,0,2013-10-12 01:34:00
9:54 PM,51.8,42.8,71,30.09,10.0,Calm,Calm,-,N/A,,Clear,0,2013-10-12 01:54:00
10:14 PM,51.8,42.8,71,30.09,10.0,Calm,Calm,-,N/A,,Clear,0,2013-10-12 02:14:00
10:34 PM,51.8,42.8,71,30.09,10.0,SE,3.5,-,N/A,,Clear,130,2013-10-12 02:34:00
10:54 PM,50.0,41.0,71,30.09,10.0,East,3.5,-,N/A,,Clear,100,2013-10-12 02:54:00
11:14 PM,51.8,42.8,71,30.09,10.0,ESE,4.6,-,N/A,,Clear,120,2013-10-12 03:14:00
11:34 PM,48.2,41.0,76,30.09,10.0,SE,3.5,-,N/A,,Clear,130,2013-10-12 03:34:00
11:54 PM,48.2,41.0,76,30.09,10.0,Calm,Calm,-,N/A,,Clear,0,2013-10-12 03:54:00